When you browse on this site, cookies collect data to enhance your experience and personalize the content and advertising you see.
Visit our Privacy Policy to learn more. By continuing to use the site, you agree to this use of cookies and data.
  • In Österreich
  • Länderverzeichnis
  • Für 7 Tage
  • Wassertemperatur
  • Satellitenkarten
  • Wetterkarte
  • News
  • Widgets
  • user-avatar
    Anmelden

    Stündliche Wetter San Luis

    Heute, 18 Januar, Freitag

    Zeit Temperatur Niederschläge Wind Luftdruck Luftfeuchtigkeit
    00:00 +12°C° 0 mm 4 m/S 705 mmHg 72%
    01:00 +12°C° 0 mm 3 m/S 705 mmHg 71%
    02:00 +12°C° 0 mm 3 m/S 704 mmHg 70%
    03:00 +12°C° 0 mm 2 m/S 704 mmHg 69%
    04:00 +12°C° 0 mm 2 m/S 704 mmHg 67%
    05:00 +12°C° 0 mm 2 m/S 703 mmHg 66%
    06:00 +14°C° 0 mm 2 m/S 704 mmHg 58%
    07:00 +16°C° 0 mm 3 m/S 704 mmHg 49%
    08:00 +18°C° 0 mm 3 m/S 705 mmHg 41%
    09:00 +20°C° 0 mm 3 m/S 705 mmHg 36%
    10:00 +22°C° 0 mm 3 m/S 705 mmHg 31%
    11:00 +25°C° 0 mm 2 m/S 705 mmHg 27%
    12:00 +26°C° 0 mm 2 m/S 705 mmHg 25%
    13:00 +27°C° 0 mm 2 m/S 704 mmHg 24%
    14:00 +29°C° 0 mm 2 m/S 703 mmHg 22%
    15:00 +29°C° 0 mm 3 m/S 703 mmHg 23%
    16:00 +29°C° 0 mm 3 m/S 702 mmHg 23%
    17:00 +29°C° 0 mm 3 m/S 702 mmHg 24%
    18:00 +27°C° 0 mm 4 m/S 701 mmHg 31%
    19:00 +25°C° 0 mm 5 m/S 701 mmHg 39%
    20:00 +22°C° 0 mm 6 m/S 701 mmHg 47%
    21:00 +21°C° 0 mm 6 m/S 701 mmHg 48%
    22:00 +21°C° 0 mm 5 m/S 701 mmHg 50%
    23:00 +20°C° 0 mm 5 m/S 702 mmHg 51%

    Morgen, 19 Januar, Samstag

    Zeit Temperatur Niederschläge Wind Luftdruck Luftfeuchtigkeit
    00:00 +20°C° 0 mm 5 m/S 701 mmHg 50%
    01:00 +20°C° 0 mm 5 m/S 701 mmHg 48%
    02:00 +20°C° 0 mm 5 m/S 701 mmHg 46%
    03:00 +19°C° 0 mm 6 m/S 701 mmHg 52%
    04:00 +18°C° 0 mm 7 m/S 701 mmHg 57%
    05:00 +18°C° 0 mm 7 m/S 700 mmHg 62%
    06:00 +20°C° 0 mm 8 m/S 701 mmHg 57%
    07:00 +22°C° 0 mm 8 m/S 701 mmHg 52%
    08:00 +23°C° 0 mm 8 m/S 702 mmHg 47%
    09:00 +26°C° 0 mm 8 m/S 702 mmHg 42%
    10:00 +28°C° 0 mm 7 m/S 702 mmHg 37%
    11:00 +29°C° 0 mm 6 m/S 702 mmHg 32%
    12:00 +30°C° 0 mm 6 m/S 701 mmHg 29%
    13:00 +32°C° 0 mm 6 m/S 701 mmHg 27%
    14:00 +33°C° 0 mm 6 m/S 700 mmHg 24%
    15:00 +33°C° 0 mm 5 m/S 700 mmHg 24%
    16:00 +34°C° 0 mm 5 m/S 699 mmHg 23%
    17:00 +34°C° 0 mm 5 m/S 698 mmHg 23%
    18:00 +30°C° 0 mm 5 m/S 698 mmHg 28%
    19:00 +28°C° 0 mm 5 m/S 698 mmHg 33%
    20:00 +26°C° 0 mm 5 m/S 697 mmHg 38%
    21:00 +24°C° 0 mm 6 m/S 698 mmHg 43%
    22:00 +24°C° 0 mm 7 m/S 698 mmHg 48%
    23:00 +23°C° 0 mm 9 m/S 699 mmHg 53%

    übermorgen, 20 Januar, Sonntag

    Zeit Temperatur Niederschläge Wind Luftdruck Luftfeuchtigkeit
    00:00 +22°C° 0 mm 9 m/S 698 mmHg 54%
    01:00 +22°C° 0 mm 10 m/S 698 mmHg 56%
    02:00 +21°C° 0 mm 11 m/S 697 mmHg 58%
    03:00 +21°C° 0 mm 10 m/S 697 mmHg 58%
    04:00 +19°C° 0 mm 10 m/S 697 mmHg 59%
    05:00 +19°C° 0 mm 9 m/S 697 mmHg 59%
    06:00 +21°C° 0 mm 9 m/S 697 mmHg 53%
    07:00 +23°C° 0 mm 9 m/S 697 mmHg 47%
    08:00 +24°C° 0 mm 9 m/S 698 mmHg 41%
    09:00 +27°C° 0 mm 8 m/S 698 mmHg 36%
    10:00 +29°C° 0 mm 7 m/S 698 mmHg 31%
    11:00 +32°C° 0 mm 6 m/S 698 mmHg 25%
    12:00 +33°C° 0 mm 6 m/S 697 mmHg 24%
    13:00 +34°C° 0 mm 5 m/S 697 mmHg 23%
    14:00 +35°C° 0 mm 5 m/S 696 mmHg 22%
    15:00 +35°C° 0 mm 5 m/S 696 mmHg 22%
    16:00 +35°C° 0 mm 4 m/S 695 mmHg 23%
    17:00 +35°C° 0 mm 4 m/S 694 mmHg 24%
    18:00 +33°C° 0 mm 4 m/S 695 mmHg 30%
    19:00 +30°C° 0 mm 4 m/S 695 mmHg 37%
    20:00 +28°C° 0 mm 4 m/S 695 mmHg 43%
    21:00 +27°C° 0 mm 5 m/S 695 mmHg 45%
    22:00 +27°C° 0 mm 6 m/S 696 mmHg 47%
    23:00 +26°C° 0 mm 7 m/S 696 mmHg 49%

    21 Januar, Montag

    Zeit Temperatur Niederschläge Wind Luftdruck Luftfeuchtigkeit
    00:00 +24°C° 0 mm 7 m/S 696 mmHg 51%
    01:00 +24°C° 0 mm 7 m/S 696 mmHg 54%
    02:00 +23°C° 0 mm 7 m/S 695 mmHg 56%
    03:00 +23°C° 0 mm 7 m/S 696 mmHg 56%
    04:00 +23°C° 0 mm 6 m/S 696 mmHg 57%
    05:00 +23°C° 0 mm 6 m/S 696 mmHg 57%
    06:00 +25°C° 0 mm 5 m/S 697 mmHg 51%
    07:00 +27°C° 0 mm 4 m/S 698 mmHg 46%
    08:00 +29°C° 0 mm 3 m/S 699 mmHg 40%
    09:00 +30°C° 0 mm 3 m/S 699 mmHg 37%
    10:00 +32°C° 0 mm 2 m/S 699 mmHg 34%
    11:00 +34°C° 0 mm 2 m/S 699 mmHg 30%
    12:00 +35°C° 0 mm 2 m/S 698 mmHg 28%
    13:00 +36°C° 0 mm 2 m/S 698 mmHg 26%
    14:00 +36°C° 0 mm 1 m/S 697 mmHg 24%
    15:00 +37°C° 0 mm 2 m/S 696 mmHg 23%
    16:00 +38°C° 0 mm 2 m/S 695 mmHg 22%
    17:00 +38°C° 0 mm 3 m/S 695 mmHg 21%
    18:00 +36°C° 0 mm 3 m/S 694 mmHg 24%
    19:00 +34°C° 0 mm 3 m/S 694 mmHg 27%
    20:00 +31°C° 0 mm 3 m/S 694 mmHg 30%
    21:00 +30°C° 0 mm 4 m/S 694 mmHg 34%
    22:00 +29°C° 0 mm 4 m/S 694 mmHg 37%
    23:00 +28°C° 0 mm 5 m/S 695 mmHg 40%

    22 Januar, Dienstag

    Zeit Temperatur Niederschläge Wind Luftdruck Luftfeuchtigkeit
    00:00 +28°C° 0 mm 6 m/S 694 mmHg 46%
    01:00 +28°C° 0 mm 7 m/S 694 mmHg 51%
    02:00 +27°C° 0 mm 9 m/S 694 mmHg 57%
    03:00 +27°C° 0 mm 8 m/S 694 mmHg 58%
    04:00 +27°C° 0 mm 8 m/S 694 mmHg 60%
    05:00 +26°C° 0 mm 8 m/S 694 mmHg 61%
    06:00 +28°C° 0 mm 8 m/S 694 mmHg 55%
    07:00 +29°C° 0 mm 8 m/S 695 mmHg 49%
    08:00 +32°C° 0 mm 8 m/S 696 mmHg 43%
    09:00 +33°C° 0 mm 7 m/S 696 mmHg 39%
    10:00 +35°C° 0 mm 6 m/S 696 mmHg 36%
    11:00 +36°C° 0 mm 6 m/S 696 mmHg 32%
    12:00 +37°C° 0 mm 5 m/S 696 mmHg 31%
    13:00 +37°C° 0 mm 4 m/S 695 mmHg 29%
    14:00 +38°C° 0 mm 3 m/S 695 mmHg 28%
    15:00 +37°C° 0 mm 4 m/S 694 mmHg 29%
    16:00 +37°C° 0 mm 5 m/S 694 mmHg 30%
    17:00 +36°C° 0 mm 6 m/S 694 mmHg 32%
    18:00 +34°C° 0.1 mm 6 m/S 694 mmHg 38%
    19:00 +32°C° 0.1 mm 7 m/S 694 mmHg 45%
    20:00 +29°C° 0.1 mm 8 m/S 694 mmHg 51%
    21:00 +28°C° 0.1 mm 7 m/S 695 mmHg 55%
    22:00 +27°C° 0.1 mm 6 m/S 695 mmHg 60%
    23:00 +26°C° 0.1 mm 5 m/S 696 mmHg 65%

    23 Januar, Mittwoch

    Zeit Temperatur Niederschläge Wind Luftdruck Luftfeuchtigkeit
    00:00 +26°C° 0.2 mm 4 m/S 696 mmHg 67%
    01:00 +25°C° 0.2 mm 4 m/S 696 mmHg 70%
    02:00 +25°C° 0.2 mm 3 m/S 696 mmHg 72%
    03:00 +24°C° 0.4 mm 3 m/S 696 mmHg 73%
    04:00 +24°C° 0.4 mm 3 m/S 696 mmHg 75%
    05:00 +24°C° 0.4 mm 3 m/S 696 mmHg 76%
    06:00 +26°C° 0 mm 3 m/S 697 mmHg 69%
    07:00 +27°C° 0 mm 4 m/S 698 mmHg 63%
    08:00 +28°C° 0 mm 4 m/S 698 mmHg 56%
    09:00 +30°C° 0 mm 4 m/S 698 mmHg 50%
    10:00 +33°C° 0 mm 4 m/S 698 mmHg 44%
    11:00 +35°C° 0 mm 4 m/S 698 mmHg 38%
    12:00 +35°C° 0 mm 4 m/S 698 mmHg 36%
    13:00 +36°C° 0 mm 4 m/S 697 mmHg 35%
    14:00 +37°C° 0 mm 4 m/S 697 mmHg 33%
    15:00 +37°C° 0.1 mm 5 m/S 696 mmHg 35%
    16:00 +36°C° 0.1 mm 6 m/S 695 mmHg 37%
    17:00 +36°C° 0.1 mm 7 m/S 695 mmHg 40%
    18:00 +35°C° 0 mm 7 m/S 695 mmHg 43%
    19:00 +33°C° 0 mm 6 m/S 694 mmHg 46%
    20:00 +32°C° 0 mm 5 m/S 694 mmHg 49%
    21:00 +32°C° 0.1 mm 6 m/S 694 mmHg 53%
    22:00 +30°C° 0.1 mm 6 m/S 694 mmHg 57%
    23:00 +29°C° 0.1 mm 6 m/S 694 mmHg 62%
    Mehr zeigen